Riverbank, California, United States (95367)
Lat: 37.74N, Lon: 120.93W
Wx Zone: CAZ019
Local Info
Past Weather Observations for Wednesday, January 28, 2015

NOTE: This archive is for the closest National Weather Service station to Riverbank. Information may differ from the station used for current weather conditions.

Click here for Long-term Archive

Time Weather Temperature Dewpoint Humidity Pressure Winds Precip Visibility
23:53
Clear
Fog And Mist
46°F / 8°C 45°F / 7°C 93% 30.18 in
(1022 mb)
ESE 5.8 mph
(ESE 9 kph)
- 1SM
23:35
Clear
Fog And Mist
46°F / 8°C 45°F / 7°C 93% 30.18 in
(1022 mb)
SE 5.8 mph
(SE 9 kph)
- 2 1/2SM
23:25
Clear
Fog And Mist
48°F / 9°C 46°F / 8°C 94% 30.18 in
(1022 mb)
SE 3.5 mph
(SE 6 kph)
- 3SM
23:16
Clear
Fog And Mist
48°F / 9°C 46°F / 8°C 94% 30.18 in
(1022 mb)
SSE 3.5 mph
(SSE 6 kph)
- 2 1/2SM
22:53
Clear
Fog And Mist
48°F / 9°C 46°F / 8°C 94% 30.18 in
(1022 mb)
Calm - 4SM
21:53
Clear
Fog And Mist
50°F / 10°C 46°F / 8°C 88% 30.18 in
(1022 mb)
SE 4.6 mph
(SE 7 kph)
- 6SM
20:53
Clear
54°F / 12°C 46°F / 8°C 77% 30.18 in
(1022 mb)
SE 3.5 mph
(SE 6 kph)
- 7SM
19:53
Clear
52°F / 11°C 46°F / 8°C 82% 30.18 in
(1022 mb)
ESE 4.6 mph
(ESE 7 kph)
- 9SM
18:53
Clear
54°F / 12°C 46°F / 8°C 77% 30.18 in
(1022 mb)
Calm - 10SM
17:53
Clear
57°F / 14°C 46°F / 8°C 67% 30.18 in
(1022 mb)
Calm - 10SM
16:53
Clear
63°F / 17°C 46°F / 8°C 56% 30.15 in
(1021 mb)
NW 4.6 mph
(NW 7 kph)
- 10SM
15:53
Clear
64°F / 18°C 46°F / 8°C 52% 30.15 in
(1021 mb)
NW 4.6 mph
(NW 7 kph)
- 10SM
14:53
Clear
64°F / 18°C 46°F / 8°C 52% 30.18 in
(1022 mb)
NNW 5.8 mph
(NNW 9 kph)
- 10SM
13:53
Clear
64°F / 18°C 48°F / 9°C 56% 30.18 in
(1022 mb)
NW 6.9 mph
(NW 11 kph)
- 10SM
12:53
Clear
63°F / 17°C 48°F / 9°C 59% 30.21 in
(1023 mb)
NNW 10.4 mph
(NNW 17 kph)
- 8SM
11:53
Clear
61°F / 16°C 48°F / 9°C 63% 30.24 in
(1024 mb)
NNW 6.9 mph
(NNW 11 kph)
- 7SM
10:53
Clear
Hazy
57°F / 14°C 48°F / 9°C 72% 30.24 in
(1024 mb)
NNW 10.4 mph
(NNW 17 kph)
- 5SM
10:00
Clear
Hazy
55°F / 13°C 48°F / 9°C 77% 30.27 in
(1025 mb)
NW 9.2 mph
(NW 15 kph)
- 5SM
09:53
Clear
Hazy
55°F / 13°C 48°F / 9°C 77% 30.27 in
(1025 mb)
NW 10.4 mph
(NW 17 kph)
- 2 1/2SM
08:53
Clear
Fog And Mist
50°F / 10°C 46°F / 8°C 88% 30.27 in
(1025 mb)
NW 3.5 mph
(NW 6 kph)
- 2 1/2SM
07:53
Clear
Fog And Mist
46°F / 8°C 45°F / 7°C 93% 30.24 in
(1024 mb)
Calm - 1 1/2SM
07:04
Partly Cloudy
Fog And Mist
45°F / 7°C 43°F / 6°C 93% 30.24 in
(1024 mb)
NW 6.9 mph
(NW 11 kph)
- 2SM
06:53
Mostly Cloudy
Fog And Mist
46°F / 8°C 45°F / 7°C 93% 30.24 in
(1024 mb)
NW 4.6 mph
(NW 7 kph)
- 2SM
06:51
Mostly Cloudy
Fog And Mist
46°F / 8°C 45°F / 7°C 93% 30.24 in
(1024 mb)
NNW 5.8 mph
(NNW 9 kph)
- 2 1/2SM
06:16
Overcast
Fog And Mist
46°F / 8°C 45°F / 7°C 93% 30.27 in
(1025 mb)
Calm - 1 1/2SM
06:00
Mostly Cloudy
Fog And Mist
48°F / 9°C 46°F / 8°C 94% 30.27 in
(1025 mb)
Calm - 2 1/2SM
05:53
Partly Cloudy
Fog And Mist
46°F / 8°C 45°F / 7°C 93% 30.27 in
(1025 mb)
Calm - 2 1/2SM
05:49
Partly Cloudy
Fog And Mist
46°F / 8°C 46°F / 8°C 100% 30.27 in
(1025 mb)
NNW 3.5 mph
(NNW 6 kph)
- 2 1/2SM
05:19
Clear
Fog And Mist
46°F / 8°C 45°F / 7°C 93% 30.24 in
(1024 mb)
Calm - 2SM
04:53
Clear
Fog And Mist
48°F / 9°C 45°F / 7°C 87% 30.24 in
(1024 mb)
NW 3.5 mph
(NW 6 kph)
- 3SM
03:53
Clear
Fog And Mist
48°F / 9°C 46°F / 8°C 94% 30.24 in
(1024 mb)
WNW 9.2 mph
(WNW 15 kph)
- 3SM
02:53
Clear
Fog And Mist
48°F / 9°C 46°F / 8°C 94% 30.24 in
(1024 mb)
W 8.1 mph
(W 13 kph)
- 3SM
01:53
Clear
Fog And Mist
48°F / 9°C 46°F / 8°C 94% 30.24 in
(1024 mb)
WNW 9.2 mph
(WNW 15 kph)
- 3SM
01:17
Clear
Fog And Mist
48°F / 9°C 46°F / 8°C 94% 30.24 in
(1024 mb)
NW 6.9 mph
(NW 11 kph)
- 3SM
01:06
Clear
Fog And Mist
48°F / 9°C 46°F / 8°C 94% 30.24 in
(1024 mb)
NW 5.8 mph
(NW 9 kph)
- 2 1/2SM
00:53
Clear
Fog And Mist
48°F / 9°C 46°F / 8°C 94% 30.24 in
(1024 mb)
NW 5.8 mph
(NW 9 kph)
- 3SM
Time Weather Temperature Dewpoint Humidity Pressure Winds Precip Visibility


Weather for websites

WeatherForYou.com, LLC is not responsible for any damages or problems caused by this service. Current weather conditions are obtained from the closest station including government and personal stations which may have varying degrees of accuracy. Weather forecasts are derived from the NOAA NDFD. Like all things, this site belongs to Jesus Christ... He just trusts me to maintain it. If you have any questions or comments email webmaster@weatherforyou.com

Copyright © 2015, WeatherForYou.com LLC. All rights reserved.